sat.trackr.live / text

‹ back to catalog

STARLINK-34456

NORAD 64439 · 2025-130B

PAYLOAD ACTIVE UNKNOWN

§ Identity

Operator
Country
US
Launch date
2025-06-18
Launch site
AFETR
Launch vehicle
Mass (kg)
RCS (m²)

Purposes: comms

External: N2YO · Heavens-Above · Gunter

§ Orbital elements

Epoch: 2026-05-25T02:44:41.122176Z

Period
93.85 min
Inclination
53.1609°
Eccentricity
0.0001447
Mean motion
15.34401644 rev/d
Perigee alt
461.7 km
Apogee alt
463.7 km
Semi-major
6,840.8 km
B*
5.9216e-4
RAAN
92.8750°
Arg perigee
84.7067°
Mean anomaly
275.4101°
Rev number
5,241

§ Raw data

STARLINK-344561 64439U 25130B   26145.11436484  .00019684  00000+0  59216-3 0  99992 64439  53.1609  92.8750 0001447  84.7067 275.4101 15.34401644 52415

JSON: /api/v1/satellites/64439 · /tle

For live sub-satellite position, see the globe view (requires WebGL).

§ Visibility from observer

Set your observer location to see the next 7 days of passes ≥ 10°. The values pass through the URL so the page stays shareable.

No JS? Fill the form by hand. The geolocation button needs JavaScript.